User: anonymous   Login
Location: Unspecified
(0.0000°N, 0.0000°E)
Time: 00:06:07
(UTC+00:00)
Language:

STARLINK-30824 - Orbit

View from above orbital plane
View from above orbital plane
View from above satellite
View from above satellite

Ground track
Ground track

The orbit is defined by the following mean orbital elements,

1 58176U          26145.19386513 +.00000000 +00000-0 +46218-4 0 00009
2 58176  43.0035  71.5051 0001247 247.1426 112.9294 15.27584498    04
Epoch (UTC): 25 May 2026 04:39:09
Eccentricity: 0.0001247
inclination: 43.0035°
perigee height: 482 km
apogee height: 484 km
right ascension of ascending node: 71.5051°
argument of perigee: 247.1426°
revolutions per day: 15.27584498
mean anomaly at epoch: 112.9294°

The dashed part of the orbit path shows where the satellite is in the earth's shadow,  

DLR